Weather in Bur

Russia / Irkutsk Oblast     58°48′46″N   106°59′47″E
temp.,
°C
wind,
m/s
gust,
m/s
humid.,
%
clouds,
%
prec.,
mm/h
press.,
hPa
HPBL,
m
12 may, wed
wed1223:000n397493 0.1 1019460
02:00−2n38845 0.1 1019326
05:00−3n39925 0.0 1019350
08:00+1n466084 0.0 10181099
11:00+3n4552100 0.1 10171612
14:00+5n4545100 0.5 10171881
17:00+5n4548100 0.7 10161562
20:00+3n255984 1.0 1017167
13 may, thu
thu1323:00−1n257632 0.0 101891
02:00−1n2485100 0.0 1019108
05:00−1nnw258652 0.0 1019129
08:00+4nne36605 0.0 1019794
11:00+7nne454222 0.0 10181628
14:00+10nne353316 0.0 10162070
17:00+11n23305 0.0 10162146
20:00+8nnw11455 0.0 101610
14 may, fri
fri1423:00+3nw11575 0.0 101710
02:00+2wsw11645 0.0 101710
05:00+1sw11695 0.0 101710
08:00+7sw244931 0.0 1016368
11:00+12sw343134 0.0 10141835
14:00+14sw452763 0.0 10112296
17:00+14sw4628100 0.0 10092408
20:00+10s2446100 0.0 100876
15 may, sat
sat1523:00+7s3115794 0.0 1008211
02:00+6s41160100 0.0 1005269
05:00+6sw51256100 0.0 1004617
08:00+4w6118485 0.4 1006934
11:00+6w6953100 0.1 10071861
14:00+7w71049100 0.2 10071957
17:00+7wsw71154100 0.2 10061826
20:00+4wsw61186100 0.9 10061205
16 may, sun
sun1623:00+2wnw41096100 1.6 1007585
02:00+1w4118268 1.9 1009477
05:00−1wsw310885 0.0 1011335
08:00+3w366017 0.0 1011784
11:00+7w463799 0.0 10102267
14:00+10w3529100 0.0 10082497
17:00+10wsw3431100 0.0 10062289
20:00+8sw4754100 0.0 1005465